Location: Niverville
(49.6028°N, 97.0419°W)
Time: 02:47:14
(UTC-05:00)

Amateur Radio Satellites - All Passes

Search period start: 25 October 2014 02:17
Search period end: 26 October 2014 02:17
Location: Niverville, 49.6028°N, 97.0419°W

Satellite Date Start Highest point End Downlink Frequencies (MHz)
Time Altitude Azimuth
AO-Echo 25 Oct 02:34:01 02:38:08 22° 91° (E) 02:42:14 ?
Oscar 16 25 Oct 02:39:32 02:44:23 41° 98° (E) 02:49:11 437.025 USB, Beacon 2401.1428
JAS-1B 25 Oct 02:41:54 02:48:05 42° 98° (E) 02:55:19 435.800 - 435.900 CW/SSB
Uribyol 2 25 Oct 02:59:36 03:04:05 28° 94° (E) 03:08:31 436.500 FM
ITAMSAT 1 25 Oct 03:05:36 03:10:12 30° 94° (E) 03:14:44 435.822 SSB
RS-15 25 Oct 03:17:52 03:27:48 37° 353° (N) 03:37:57 29.354 - 29.394 USB, Beacon 29.352 USB
Gurwin Techsat 1B 25 Oct 03:26:27 03:30:54 26° 93° (E) 03:35:18 435.225 FM
Oscar 19 25 Oct 03:32:52 03:38:00 76° 288° (WNW) 03:43:06 437.125 CW, 437.150 USB
OPAL 25 Oct 03:35:56 03:37:54 12° 48° (NE) 03:39:52 ?
TMSAT-1 25 Oct 03:37:38 03:41:58 25° 92° (E) 03:46:17 436.925 FM
AO-27 25 Oct 03:50:56 03:56:12 71° 103° (ESE) 04:01:25 436.795 MHz FM
AO-Echo 25 Oct 04:12:04 04:17:19 63° 289° (WNW) 04:22:33 ?
AO-7 25 Oct 04:18:39 04:24:13 19° 87° (E) 04:29:46 29.400 - 29.500 MHz
Oscar 16 25 Oct 04:19:06 04:23:39 33° 297° (WNW) 04:28:11 437.025 USB, Beacon 2401.1428
Sapphire 25 Oct 04:26:18 04:31:14 37° 114° (ESE) 04:36:12 437.095 MHz 1200 baud AX-25 AFSK
JAS-1B 25 Oct 04:32:46 04:38:47 45° 295° (WNW) 04:45:50 435.800 - 435.900 CW/SSB
Uribyol 2 25 Oct 04:38:46 04:43:47 48° 293° (WNW) 04:48:44 436.500 FM
ITAMSAT 1 25 Oct 04:44:53 04:49:51 45° 293° (WNW) 04:54:48 435.822 SSB
PCSat 25 Oct 04:48:21 04:53:38 58° 119° (ESE) 04:58:59 145.825 MHz
Gurwin Techsat 1B 25 Oct 05:05:59 05:11:09 53° 292° (WNW) 05:16:18 435.225 FM
OPAL 25 Oct 05:10:48 05:15:51 60° 67° (ENE) 05:20:51 ?
Oscar 19 25 Oct 05:13:53 05:16:31 14° 307° (NW) 05:19:09 437.125 CW, 437.150 USB
TMSAT-1 25 Oct 05:17:02 05:22:14 55° 291° (WNW) 05:27:24 436.925 FM
STRAND 1 25 Oct 05:20:52 05:22:35 12° 50° (NE) 05:24:17 ?
AO-27 25 Oct 05:31:20 05:35:13 21° 303° (WNW) 05:39:05 436.795 MHz FM
RS-15 25 Oct 05:32:53 05:43:24 46° 26° (NNE) 05:54:14 29.354 - 29.394 USB, Beacon 29.352 USB
AO-Echo 25 Oct 05:52:52 05:55:06 13° 309° (NW) 05:57:20 ?
JAS-2 25 Oct 05:54:06 06:00:39 29° 89° (E) 06:07:15 435.800 - 435.900 CW/SSB, 435.910 FM
Uosat F 25 Oct 05:57:10 06:02:12 63° 102° (ESE) 06:07:12 435.120 FM
Sapphire 25 Oct 06:09:23 06:14:36 46° 315° (NW) 06:19:51 437.095 MHz 1200 baud AX-25 AFSK
AO-7 25 Oct 06:10:00 06:18:22 78° 108° (ESE) 06:26:43 29.400 - 29.500 MHz
JAS-1B 25 Oct 06:26:56 06:28:06 11° 316° (NW) 06:29:16 435.800 - 435.900 CW/SSB
PCSat 25 Oct 06:32:29 06:37:23 33° 320° (NW) 06:42:18 145.825 MHz
Gurwin Techsat 1B 25 Oct 06:48:49 06:49:59 11° 312° (NW) 06:51:10 435.225 FM
OPAL 25 Oct 06:51:08 06:55:06 22° 266° (W) 06:59:03 ?
STRAND 1 25 Oct 06:55:43 07:00:45 59° 70° (ENE) 07:05:50 ?
Hamsat 25 Oct 06:56:46 07:00:43 39° 97° (E) 07:04:40 145.90 MHz
TMSAT-1 25 Oct 06:59:32 07:01:04 11° 311° (NW) 07:02:35 436.925 FM
Uosat F 25 Oct 07:36:42 07:40:35 23° 301° (WNW) 07:44:28 435.120 FM
JAS-2 25 Oct 07:38:34 07:46:16 76° 289° (WNW) 07:54:06 435.800 - 435.900 CW/SSB, 435.910 FM
RS-15 25 Oct 07:45:48 07:56:55 83° 234° (SW) 08:08:30 29.354 - 29.394 USB, Beacon 29.352 USB
Saudisat 1A 25 Oct 07:52:33 07:56:05 24° 116° (ESE) 07:59:39 436.775 MHz
Sapphire 25 Oct 07:55:58 07:59:25 17° 338° (NNW) 08:02:52 437.095 MHz 1200 baud AX-25 AFSK
SO-67 25 Oct 07:56:35 07:59:23 22° 94° (E) 08:02:09 435.3500 MHz FM
AO-7 25 Oct 08:03:26 08:10:30 33° 310° (NW) 08:17:35 29.400 - 29.500 MHz
PCSat 25 Oct 08:19:39 08:22:31 14° 345° (NNW) 08:25:24 145.825 MHz
Hamsat 25 Oct 08:33:06 08:36:30 25° 296° (WNW) 08:39:55 145.90 MHz
STRAND 1 25 Oct 08:36:22 08:40:20 22° 269° (W) 08:44:21 ?
JAS-2 25 Oct 09:24:41 09:30:13 23° 309° (NW) 09:35:53 435.800 - 435.900 CW/SSB, 435.910 FM
SO-67 25 Oct 09:29:22 09:32:23 28° 292° (WNW) 09:35:22 435.3500 MHz FM
Saudisat 1A 25 Oct 09:31:03 09:35:22 55° 315° (NW) 09:39:44 436.775 MHz
MaSat-1 25 Oct 09:34:29 09:37:14 77° 241° (WSW) 09:39:43 437.345 MHz
Sapphire 25 Oct 09:42:55 09:45:12 13° 5° (N) 09:47:29 437.095 MHz 1200 baud AX-25 AFSK
AO-7 25 Oct 09:58:13 10:00:46 12° 335° (NNW) 10:03:19 29.400 - 29.500 MHz
RS-15 25 Oct 09:59:15 10:07:42 26° 258° (WSW) 10:16:27 29.354 - 29.394 USB, Beacon 29.352 USB
PCSat 25 Oct 10:05:42 10:08:22 14° 12° (NNE) 10:11:01 145.825 MHz
UKube-1 25 Oct 10:09:02 10:11:43 16° 90° (E) 10:14:23 145.840 MHz, 145.915 MHz
HO-68 25 Oct 10:15:27 10:22:27 51° 100° (E) 10:29:24 435.675 MHz FM
Oscar 11 25 Oct 10:49:10 10:53:10 36° 97° (E) 10:57:08 145.825 FM, Beacon 2401.500 USB
FUNcube-1 25 Oct 10:49:12 10:51:59 17° 89° (E) 10:54:43 145.950 - 145.970 MHz USB
Saudisat 1A 25 Oct 11:12:57 11:15:53 17° 338° (NNW) 11:18:49 436.775 MHz
Sapphire 25 Oct 11:26:28 11:30:44 23° 31° (NNE) 11:34:59 437.095 MHz 1200 baud AX-25 AFSK
ZACube-1 25 Oct 11:39:53 11:44:06 52° 100° (E) 11:48:11 437.345 MHz
UKube-1 25 Oct 11:44:00 11:48:21 65° 288° (WNW) 11:52:40 145.840 MHz, 145.915 MHz
PCSat 25 Oct 11:48:52 11:53:37 29° 37° (NE) 11:58:21 145.825 MHz
KITSAT 1 25 Oct 11:58:20 12:04:47 27° 106° (ESE) 12:11:15 435.175 FM
HO-68 25 Oct 12:03:26 12:10:04 42° 301° (WNW) 12:16:40 435.675 MHz FM
Oscar 16 25 Oct 12:24:04 12:27:16 17° 55° (NE) 12:30:28 437.025 USB, Beacon 2401.1428
FUNcube-1 25 Oct 12:24:33 12:28:47 57° 289° (WNW) 12:32:53 145.950 - 145.970 MHz USB
Oscar 11 25 Oct 12:25:35 12:29:15 28° 295° (WNW) 12:32:54 145.825 FM, Beacon 2401.500 USB
Uribyol 2 25 Oct 12:45:56 12:48:11 13° 51° (NE) 12:50:27 436.500 FM
ITAMSAT 1 25 Oct 12:51:51 12:54:20 14° 51° (NE) 12:56:49 435.822 SSB
Saudisat 1A 25 Oct 12:55:36 12:57:12 12° 2° (N) 12:58:49 436.775 MHz
ISS 25 Oct 12:58:08 12:59:55 14° 137° (SE) 13:01:43 145.800 FM
Sapphire 25 Oct 13:09:33 13:15:01 79° 53° (NE) 13:20:28 437.095 MHz 1200 baud AX-25 AFSK
Oscar 19 25 Oct 13:15:24 13:20:09 39° 65° (ENE) 13:24:53 437.125 CW, 437.150 USB
Gurwin Techsat 1B 25 Oct 13:15:53 13:17:56 12° 50° (NE) 13:20:00 435.225 FM
ZACube-1 25 Oct 13:17:02 13:20:09 20° 299° (WNW) 13:23:13 437.345 MHz
UKube-1 25 Oct 13:23:07 13:23:42 10° 307° (NW) 13:24:17 145.840 MHz, 145.915 MHz
TMSAT-1 25 Oct 13:27:05 13:28:48 12° 49° (NE) 13:30:32 436.925 FM
PCSat 25 Oct 13:32:06 13:37:31 70° 239° (WSW) 13:42:54 145.825 MHz
JAS-1B 25 Oct 13:33:22 13:38:54 48° 66° (ENE) 13:44:22 435.800 - 435.900 CW/SSB
SO-50 25 Oct 13:34:48 13:39:02 41° 120° (ESE) 13:43:24 436.795 FM
AO-7 25 Oct 13:34:55 13:38:53 15° 31° (NNE) 13:42:51 29.400 - 29.500 MHz
AO-27 25 Oct 13:35:14 13:39:36 28° 61° (ENE) 13:44:00 436.795 MHz FM
AO-Echo 25 Oct 13:51:03 13:55:40 41° 66° (ENE) 14:00:28 ?
KITSAT 1 25 Oct 13:51:14 13:59:21 84° 308° (NW) 14:07:30 435.175 FM
HO-68 25 Oct 13:53:25 13:55:56 12° 324° (NW) 13:58:28 435.675 MHz FM
Oscar 16 25 Oct 14:00:46 14:05:56 89° 74° (ENE) 14:11:08 437.025 USB, Beacon 2401.1428
Uribyol 2 25 Oct 14:21:33 14:26:43 65° 70° (ENE) 14:31:55 436.500 FM
ITAMSAT 1 25 Oct 14:27:45 14:32:55 69° 71° (ENE) 14:38:09 435.822 SSB
ISS 25 Oct 14:32:48 14:36:05 61° 155° (SSE) 14:39:24 145.800 FM
Saudisat 1A 25 Oct 14:35:09 14:38:27 20° 27° (NNE) 14:41:44 436.775 MHz
Gurwin Techsat 1B 25 Oct 14:51:40 14:56:53 61° 70° (ENE) 15:02:09 435.225 FM
Sapphire 25 Oct 14:54:00 14:57:50 20° 253° (WSW) 15:01:40 437.095 MHz 1200 baud AX-25 AFSK
Oscar 19 25 Oct 14:54:52 14:59:32 34° 264° (W) 15:04:14 437.125 CW, 437.150 USB
UOSAT-12 25 Oct 14:55:12 14:59:08 28° 116° (ESE) 15:03:07 437.025 FM, 437.400 FM
TMSAT-1 25 Oct 15:02:29 15:07:40 57° 69° (ENE) 15:12:53 436.925 FM
AO-27 25 Oct 15:13:48 15:18:52 51° 260° (W) 15:24:00 436.795 MHz FM
SO-50 25 Oct 15:15:22 15:19:39 38° 321° (NW) 15:24:04 436.795 FM
PCSat 25 Oct 15:17:56 15:19:57 12° 258° (WSW) 15:21:58 145.825 MHz
AO-7 25 Oct 15:21:58 15:29:32 42° 55° (NE) 15:37:08 29.400 - 29.500 MHz
JAS-1B 25 Oct 15:25:00 15:29:57 28° 266° (W) 15:34:49 435.800 - 435.900 CW/SSB
AO-Echo 25 Oct 15:30:13 15:34:34 31° 266° (W) 15:39:05 ?
Uosat F 25 Oct 15:37:35 15:41:28 23° 59° (ENE) 15:45:21 435.120 FM
Oscar 16 25 Oct 15:43:16 15:46:01 14° 273° (W) 15:48:47 437.025 USB, Beacon 2401.1428
KITSAT 1 25 Oct 15:48:41 15:55:54 34° 333° (NNW) 16:03:08 435.175 FM
Uribyol 2 25 Oct 16:02:46 16:06:39 21° 269° (W) 16:10:34 436.500 FM
ITAMSAT 1 25 Oct 16:09:12 16:12:56 20° 270° (W) 16:16:41 435.822 SSB
ISS 25 Oct 16:09:31 16:12:50 60° 355° (N) 16:16:09 145.800 FM
JAS-2 25 Oct 16:12:40 16:17:09 20° 49° (NE) 16:21:58 435.800 - 435.900 CW/SSB, 435.910 FM
Saudisat 1A 25 Oct 16:14:18 16:18:45 74° 48° (NE) 16:23:10 436.775 MHz
Gurwin Techsat 1B 25 Oct 16:33:10 16:37:17 23° 269° (W) 16:41:26 435.225 FM
UOSAT-12 25 Oct 16:34:27 16:39:02 54° 316° (NW) 16:43:43 437.025 FM, 437.400 FM
TMSAT-1 25 Oct 16:43:42 16:47:57 24° 268° (W) 16:52:13 436.925 FM
SO-50 25 Oct 16:58:40 17:01:29 16° 345° (NNW) 17:04:21 436.795 FM
AO-7 25 Oct 17:13:59 17:22:07 59° 257° (WSW) 17:30:18 29.400 - 29.500 MHz
Uosat F 25 Oct 17:14:53 17:19:51 62° 258° (WSW) 17:24:53 435.120 FM
ISS 25 Oct 17:46:22 17:49:43 78° 16° (NNE) 17:53:04 145.800 FM
KITSAT 1 25 Oct 17:47:35 17:53:59 25° 2° (N) 18:00:23 435.175 FM
Hamsat 25 Oct 17:54:05 17:58:07 48° 71° (ENE) 18:02:10 145.90 MHz
Saudisat 1A 25 Oct 17:54:52 17:57:49 18° 247° (WSW) 18:00:46 436.775 MHz
JAS-2 25 Oct 17:54:56 18:01:03 80° 72° (ENE) 18:08:05 435.800 - 435.900 CW/SSB, 435.910 FM
UOSAT-12 25 Oct 18:16:55 18:20:12 18° 339° (NNW) 18:23:31 437.025 FM, 437.400 FM
SO-67 25 Oct 18:33:58 18:36:11 16° 64° (ENE) 18:38:25 435.3500 MHz FM
SO-50 25 Oct 18:41:23 18:43:57 14° 10° (N) 18:46:33 436.795 FM
OPAL 25 Oct 18:55:02 19:00:00 66° 105° (ESE) 19:04:55 ?
STRAND 1 25 Oct 19:03:24 19:06:08 14° 87° (E) 19:08:52 ?
HO-68 25 Oct 19:04:42 19:08:55 17° 43° (NE) 19:13:08 435.675 MHz FM
AO-7 25 Oct 19:13:36 19:16:48 13° 279° (W) 19:20:00 29.400 - 29.500 MHz
ISS 25 Oct 19:23:14 19:26:14 30° 214° (SSW) 19:29:12 145.800 FM
Hamsat 25 Oct 19:31:19 19:34:21 19° 269° (W) 19:37:24 145.90 MHz
JAS-2 25 Oct 19:42:30 19:47:06 21° 275° (W) 19:52:08 435.800 - 435.900 CW/SSB, 435.910 FM
KITSAT 1 25 Oct 19:44:28 19:51:55 38° 31° (NNE) 19:59:20 435.175 FM
UOSAT-12 25 Oct 19:59:52 20:02:11 13° 3° (N) 20:04:29 437.025 FM, 437.400 FM
SO-67 25 Oct 20:05:36 20:08:53 41° 262° (W) 20:12:11 435.3500 MHz FM
SO-50 25 Oct 20:21:47 20:26:00 30° 34° (NNE) 20:30:16 436.795 FM
OPAL 25 Oct 20:34:43 20:38:27 22° 305° (NW) 20:42:10 ?
STRAND 1 25 Oct 20:40:52 20:46:05 90° 285° (WNW) 20:51:14 ?
HO-68 25 Oct 20:48:15 20:55:15 59° 65° (ENE) 21:02:18 435.675 MHz FM
ZACube-1 25 Oct 21:07:20 21:08:56 12° 55° (NE) 21:10:32 437.345 MHz
UKube-1 25 Oct 21:08:19 21:11:52 25° 62° (ENE) 21:15:26 145.840 MHz, 145.915 MHz
KITSAT 1 25 Oct 21:40:03 21:48:10 82° 236° (SW) 21:56:14 435.175 FM
UOSAT-12 25 Oct 21:40:15 21:44:01 23° 28° (NNE) 21:47:45 437.025 FM, 437.400 FM
Oscar 11 25 Oct 21:48:10 21:52:21 49° 70° (ENE) 21:56:32 145.825 FM, Beacon 2401.500 USB
FUNcube-1 25 Oct 21:49:15 21:53:00 26° 64° (ENE) 21:56:43 145.950 - 145.970 MHz USB
SO-50 25 Oct 22:02:09 22:06:57 67° 234° (SW) 22:11:48 436.795 FM
RS-15 25 Oct 22:15:11 22:25:01 41° 110° (ESE) 22:34:50 29.354 - 29.394 USB, Beacon 29.352 USB
STRAND 1 25 Oct 22:21:21 22:24:35 17° 305° (NW) 22:27:48 ?
HO-68 25 Oct 22:36:58 22:43:20 34° 265° (W) 22:49:46 435.675 MHz FM
ZACube-1 25 Oct 22:40:01 22:44:35 74° 74° (ENE) 22:49:05 437.345 MHz
UKube-1 25 Oct 22:43:43 22:47:52 42° 261° (W) 22:52:03 145.840 MHz, 145.915 MHz
MaSat-1 25 Oct 23:17:23 23:18:26 11° 106° (ESE) 23:19:27 437.345 MHz
UOSAT-12 25 Oct 23:20:06 23:24:52 82° 49° (NE) 23:29:33 437.025 FM, 437.400 FM
FUNcube-1 25 Oct 23:24:50 23:29:12 43° 262° (W) 23:33:30 145.950 - 145.970 MHz USB
Oscar 11 25 Oct 23:25:35 23:28:48 20° 268° (W) 23:32:02 145.825 FM, Beacon 2401.500 USB
KITSAT 1 25 Oct 23:36:44 23:42:24 22° 257° (WSW) 23:48:04 435.175 FM
SO-50 25 Oct 23:45:22 23:46:39 11° 253° (WSW) 23:47:57 436.795 FM
ZACube-1 26 Oct 00:18:52 00:21:28 15° 272° (W) 00:24:04 437.345 MHz
RS-15 26 Oct 00:25:44 00:36:41 73° 315° (NW) 00:47:44 29.354 - 29.394 USB, Beacon 29.352 USB
MaSat-1 26 Oct 00:49:36 00:53:36 86° 301° (WNW) 00:57:11 437.345 MHz
UOSAT-12 26 Oct 01:01:24 01:04:26 17° 249° (WSW) 01:07:25 437.025 FM, 437.400 FM
JAS-1B 26 Oct 01:15:20 01:15:22 10° 83° (E) 01:15:25 435.800 - 435.900 CW/SSB
AO-Echo 26 Oct 01:57:07 01:57:25 10° 83° (E) 01:57:43 ?
Oscar 16 26 Oct 02:08:41 02:12:43 23° 92° (E) 02:16:44 437.025 USB, Beacon 2401.1428
